Regional Weather Roundup
Issued by NWS

Home | Current Version | Previous Version | Graphics & Text | Print | Product List | Glossary On
Versions: 1 2 3 4 5 6 7 8 9 10 11 12 13 14 15 16 17 18 19 20 21 22 23 24 25 26 27 28 29 30 31 32 33 34 35 36 37 38 39 40 41 42 43 44 45 46 47 48 49 50
000
ASUS43 KDMX 291307
RWRIA

WEATHER ROUNDUP FOR IOWA
NATIONAL WEATHER SERVICE DES MOINES IA
700 AM CST THU JAN 29 2015

NOTE: "FAIR" INDICATES FEW OR NO CLOUDS BELOW 12,000 FEET WITH NO
SIGNIFICANT WEATHER AND/OR OBSTRUCTIONS TO VISIBILITY.

* - THESE STATIONS ARE NOT NWS STATIONS...THUS NOT UNDER NWS
QUALITY CONTROL.  THEY ALSO DO NOT REPORT WEATHER SUCH
AS PRECIPITATION OR FOG.

IAZ001>003-012>014-020>022-031>034-043>046-291400-
   NORTHWEST IOWA

CITY           SKY/WX    TMP DP  RH WIND       PRES   REMARKS
CARROLL *      CLOUDY    34  30  86 NW22G30   30.15R WCI  22
CHEROKEE *     CLOUDY    32  28  86 NW21G33   30.19R WCI  20
DENISON *      CLOUDY    34  30  86 NW20G35   30.17R WCI  22
LE MARS *      CLOUDY    34  28  80 N23G29    30.24R WCI  22
ORANGE CITY *  CLOUDY    32  27  80 N17G36    30.21R WCI  21
SHELDON *      CLOUDY    30  28  93 NW24G32   30.20R WCI  16
SIOUX CITY     CLOUDY    35  28  75 N26G35    30.24R WCI  22
SPENCER        CLOUDY    31  25  78 NW32G41   30.17R WCI  16
STORM LAKE *   CLOUDY    32  28  86 NW26      30.16R WCI  18
$$

IAZ055>058-069>071-079>083-090>094-291400-
   SOUTHWEST IOWA

CITY           SKY/WX    TMP DP  RH WIND       PRES   REMARKS
ATLANTIC *     CLOUDY    34  30  86 NW21G26   30.17R WCI  22
AUDUBON *      MOCLDY    34  28  80 NW21G31   30.17R WCI  22
CLARINDA *     CLOUDY    36  28  75 NW21G28   30.21R WCI  24
COUNCIL BLFS * CLOUDY    36  28  75 N26G36    30.20R WCI  23
CRESTON *      CLOUDY    34  30  86 NW23      30.13R WCI  22
HARLAN  *      CLOUDY    34  32  93 NW25G36   30.21R WCI  21
LAMONI         CLOUDY    35  30  82 NW17G26   30.12R WCI  25
RED OAK *      CLOUDY    36  28  75 N20G29    30.20R WCI  25
SHENANDOAH *   CLOUDY    37  28  70 N22G36    30.22R WCI  27
$$

IAZ047>049-059>061-072>074-084-291400-
   CENTRAL IOWA

CITY           SKY/WX    TMP DP  RH WIND       PRES   REMARKS
AMES           CLOUDY    33  30  88 NW21      30.09R WCI  21
ANKENY *       CLOUDY    34  32  93 NW20      30.10R WCI  22
CHARITON *     CLOUDY    36  32  87 NW21G29   30.08R WCI  24
DES MOINES     DRIZZLE   35  30  82 N22G31    30.10R WCI  23
GRINNELL*      CLOUDY    34  32  93 NW23G30   30.03R WCI  22
KNOXVILLE *    CLOUDY    36  30  80 NW25G36   30.05R WCI  23
MARSHALLTOWN   CLOUDY    34  31  88 NW24G31   30.03R WCI  21
PELLA *        MOCLDY    36  32  87 NW20      30.07R WCI  25
PERRY *          N/A     34  32  93 NW20G26   30.13R WCI  22
$$

IAZ004>006-015-016-023>025-035-036-291400-
   NORTH CENTRAL IOWA

CITY           SKY/WX    TMP DP  RH WIND       PRES   REMARKS
ALGONA *       CLOUDY    32  28  86 NW29G37   30.11R WCI  18
CLARION *      CLOUDY    32  32 100 NW29G38   30.08R WCI  18
ESTHERVILLE    CLOUDY    30  26  85 NW31G41   30.14R WCI  15
FORT DODGE *   CLOUDY    32  27  80 NW15G26   30.12R WCI  22
MASON CITY     CLOUDY    31  29  92 NW24G35   30.05R WCI  17
FOREST CITY *  CLOUDY    32  30  93 NW28G38   30.06R WCI  18
IOWA FALLS *   CLOUDY    32  30  93 NW28G35   30.06R WCI  18
$$

IAZ007>011-017>019-026>030-037>042-050>054-066-291400-
   NORTHEAST IOWA

CITY           SKY/WX    TMP DP  RH WIND       PRES   REMARKS
CEDAR RAPIDS   CLOUDY    33  31  92 NW22G29   29.96R WCI  21
CHARLES CITY * CLOUDY    34  34 100 NW17      30.00R FOG     WCI  23
CLINTON *      CLOUDY    34  28  80 NW22      29.93R WCI  22
DECORAH *      CLOUDY    32  30  93 NW18      29.95R WCI  20
DUBUQUE        CLOUDY    31  27  85 N17G31    29.90R WCI  19
MONTICELLO *   CLOUDY    34  30  86 NW22      29.94R WCI  22
OELWEIN *      CLOUDY    34  32  93 NW21G28   29.98R WCI  22
WATERLOO       LGT RAIN  34  32  92 NW22      30.00R WCI  22
$$

IAZ064-065-067-068-078-291400-
   EAST CENTRAL IOWA

CITY           SKY/WX    TMP DP  RH WIND       PRES   REMARKS
DAVENPORT      CLOUDY    34  28  79 NW28G35   29.91R WCI  21
IOWA CITY      CLOUDY    35  29  78 NW16G29   29.99R WCI  25
MT. PLEASANT * CLOUDY    36  30  80 NW15G32   29.98R WCI  26
MUSCATINE *    CLOUDY    36  30  80 NW23G31   29.97R WCI  24
QUAD CITIES    CLOUDY    34  29  82 NW17G25   29.91R WCI  23
$$

IAZ062-063-075>077-085>089-095>099-291400-
   SOUTHEAST IOWA

CITY           SKY/WX    TMP DP  RH WIND       PRES   REMARKS
BURLINGTON     CLOUDY    36  31  82 NW15G25   29.96R WCI  27
FAIRFIELD *    CLOUDY    36  30  80 NW21G31   30.00R WCI  24
FORT MADISON * CLOUDY    36  30  80 NW18G30   29.98R WCI  25
KEOKUK *       CLOUDY    37  32  81 NW20G28   29.98R WCI  27
OSKALOOSA *    CLOUDY    34  32  93 NW21      30.03R WCI  22
CENTERVILLE *  CLOUDY    36  34  93 NW18G25   30.07R WCI  25
OTTUMWA        CLOUDY    35  32  88 NW18G29   30.01R WCI  24
WASHINGTON *   CLOUDY    36  34  93 NW24G31   29.98R WCI  24
$$

ABBREVIATIONS USED IN REMARKS
   TC - TEMPERATURES IN CELSIUS
  WCI - WIND CHILL INDEX
   HX - HEAT INDEX
  VSB - VISIBILITY
$$



USA.gov is the U.S. government's official web portal to all federal, state and local government web resources and services.